User: anonymous   Login
Location: Unspecified
(0.0000°N, 0.0000°E)
Time: 06:54:00
(UTC+00:00)
Language:

Tiros 1 despin weight - Orbit

View from above orbital plane
View from above orbital plane
View from above satellite
View from above satellite

Ground track
Ground track

The orbit data is extracted from the following two-line orbital elements,

1 00115U 60002D   16151.21863226  .00000126  00000-0  42573-4 0  9993
2 00115  48.1654 183.6381 0035563 213.7017 146.1634 14.82796756993382
Epoch (UTC): 30 May 2016 05:14:49
Eccentricity: 0.0035563
inclination: 48.1654°
perigee height: 595 km
apogee height: 645 km
right ascension of ascending node: 183.6381°
argument of perigee: 213.7017°
revolutions per day: 14.82796756
mean anomaly at epoch: 146.1634°
orbit number at epoch: 99338

The dashed part of the orbit path shows where the satellite is in the earth's shadow,  

DLR